Weather History for KPOB - April, 2014

Change the Weather History Date:

Thursday, April 3, 2014

  Actual Average Record
Temperature  
Mean Temperature 70 °F -  
Max Temperature 83 °F 71 °F 87 °F (2002)
Min Temperature 58 °F 49 °F 30 °F (2011)
Cooling Degree Days 5    
Growing Degree Days 20 (Base 50)    
Moisture  
Dew Point 49 °F    
Average Humidity 47    
Maximum Humidity 70    
Minimum Humidity 27    
Precipitation  
Precipitation 0.00 in - - ()
Sea Level Pressure  
Sea Level Pressure 30.00 in    
Wind  
Wind Speed 8 mph (WSW)    
Max Wind Speed 13 mph    
Max Gust Speed 17 mph    
Visibility 10 miles    
Events      
Averages and records for this station are not official NWS values.
T = Trace of Precipitation, MM = Missing Value Source: NWS Daily Summary

Daily Weather History Graph

Daily Weather History Graph

Search for Another Location

Airport or City:

Trip Planner

Search our weather history database for the weather conditions in past years. The results will help you decide how hot, cold, wet, or windy it might be!

Date:

Astronomy

Apr. 03, 2014 Rise Set
Actual Time 7:00 AM EDT 7:39 PM EDT
Civil Twilight 6:34 AM EDT 8:04 PM EDT
Nautical Twilight 6:04 AM EDT 8:34 PM EDT
Astronomical Twilight 5:33 AM EDT 9:05 PM EDT
Moon 9:35 AM EDT (4/3) 11:49 PM EDT (4/3)
Length of Visible Light 13h 30m
Length of Day
12h 39m
Waxing Crescent, 17% of the Moon is Illuminated
Apr 3
Waxing Crescent
Apr 7
First Quarter
Apr 15
Full
Apr 22
Last Quarter
Apr 29
New

Hourly Weather History & Observations

Time (EDT) Temp. Heat Index Dew Point Humidity Pressure Visibility Wind Dir Wind Speed Gust Speed Precip Events Conditions
12:58 AM 68.2 °F - 45.0 °F 43% 30.05 in 10.0 mi SW 10.4 mph - N/A   Clear
1:58 AM 64.9 °F - 46.6 °F 51% 30.04 in 10.0 mi SW 9.2 mph - N/A   Clear
2:58 AM 62.1 °F - 47.8 °F 60% 30.04 in 10.0 mi WSW 6.9 mph - N/A   Clear
3:58 AM 60.3 °F - 48.6 °F 65% 30.02 in 10.0 mi WSW 8.1 mph - N/A   Clear
4:58 AM 59.7 °F - 48.6 °F 67% 30.02 in 10.0 mi WSW 8.1 mph - N/A   Clear
5:58 AM 58.8 °F - 48.7 °F 69% 30.02 in 10.0 mi WSW 8.1 mph - N/A   Clear
6:58 AM 58.1 °F - 48.2 °F 70% 30.03 in 10.0 mi WSW 6.9 mph - N/A   Clear
7:58 AM 61.0 °F - 48.7 °F 64% 30.06 in 10.0 mi West 8.1 mph - N/A   Partly Cloudy
8:58 AM 63.5 °F - 49.3 °F 60% 30.07 in 10.0 mi West 5.8 mph - N/A   Mostly Cloudy
9:58 AM 67.6 °F - 48.6 °F 50% 30.07 in 10.0 mi WNW 6.9 mph - N/A   Partly Cloudy
10:58 AM 68.7 °F - 48.2 °F 48% 30.07 in 10.0 mi West 4.6 mph - N/A   Mostly Cloudy
11:55 AM 73.0 °F - 49.6 °F 44% 30.07 in 10.0 mi NNW 8.1 mph - N/A   Scattered Clouds
11:58 AM 73.0 °F - 49.6 °F 44% 30.08 in 10.0 mi NNW 8.1 mph - N/A   Scattered Clouds
12:55 PM 72.9 °F - 43.7 °F 35% 30.03 in 10.0 mi Calm Calm - N/A   Scattered Clouds
1:58 PM 77.9 °F - 42.4 °F 28% 30.03 in 10.0 mi Variable 2.3 mph - N/A   Clear
2:58 PM 80.2 °F - 45.1 °F 29% 29.99 in 10.0 mi Variable 5.8 mph - N/A   Clear
3:58 PM 82.2 °F 81.4 °F 54.3 °F 38% 29.96 in 10.0 mi West 12.7 mph - N/A   Clear
4:01 PM 82.4 °F 81.7 °F 55.4 °F 39% 29.95 in 10.0 mi SSW 12.7 mph - N/A   Clear
4:58 PM 82.2 °F 81.8 °F 56.3 °F 41% 29.94 in 10.0 mi SW 11.5 mph 17.3 mph N/A   Clear
5:58 PM 82.6 °F 82.0 °F 56.1 °F 40% 29.92 in 10.0 mi SSW 8.1 mph - N/A   Clear
6:58 PM 82.0 °F - 44.8 °F 27% 29.93 in 10.0 mi SW 9.2 mph - N/A   Clear
7:58 PM 78.6 °F - 44.8 °F 30% 29.93 in 10.0 mi SSW 11.5 mph - N/A   Clear
8:58 PM 76.1 °F - 45.7 °F 34% 29.93 in 10.0 mi SSW 8.1 mph - N/A   Clear
9:58 PM 74.7 °F - 45.9 °F 36% 29.93 in 10.0 mi SW 8.1 mph - N/A   Clear
11:58 PM 70.7 °F - 53.6 °F 55% 29.92 in 10.0 mi SW 11.5 mph - N/A   Overcast